Location: Newark
(41.8083°N, 72.2500°W)
Time: 14:24:27
(UTC+00:00)

Hubble Space Telescope - Visible Passes

Search period start: 22 September 2020 00:00
Search period end: 02 October 2020 00:00
Orbit: 536 x 540 km, 28.5° (Epoch: 21 September)

Date Brightness Start Highest point End Pass type
(mag) Time Alt. Az. Time Alt. Az. Time Alt. Az.
28 Sep 3.3 08:55:43 10° S 08:56:02 10° S 08:56:52 10° SSE visible
29 Sep 3.3 08:45:40 11° SSE 08:45:40 11° SSE 08:46:31 10° SSE visible
30 Sep 3.4 08:35:36 11° SSE 08:35:36 11° SSE 08:35:55 10° SSE visible
30 Sep 3.1 10:13:21 10° SSW 10:14:38 11° S 10:15:55 10° S visible
01 Oct 3.2 10:03:07 10° SSW 10:03:46 10° S 10:04:26 10° S visible
